Weather History for KGLH - May, 2013

Change the Weather History Date:

Wednesday, May 22, 2013

  Actual Average Record
Temperature  
Mean Temperature 73 °F 74 °F  
Max Temperature 82 °F 84 °F 94 °F (1972)
Min Temperature 64 °F 64 °F 49 °F (1929)
Degree Days  
Heating Degree Days 0 0  
Month to date heating degree days 52 10  
Since 1 July heating degree days 2695 2771  
Cooling Degree Days 8 9  
Month to date cooling degree days 105 147  
Year to date cooling degree days 184 233  
Growing Degree Days 22 (Base 50)    
Moisture  
Dew Point 65 °F    
Average Humidity 76    
Maximum Humidity 93    
Minimum Humidity 58    
Precipitation  
Precipitation T in 0.14 in 3.58 in (1974)
Month to date precipitation 3.56 3.76  
Year to date precipitation 24.22 23.11  
Sea Level Pressure  
Sea Level Pressure 29.90 in    
Wind  
Wind Speed 6 mph (SW)    
Max Wind Speed 20 mph    
Max Gust Speed 28 mph    
Visibility 10 miles    
Events Rain    
T = Trace of Precipitation, MM = Missing Value Source: NWS Daily Summary

Daily Weather History Graph

Daily Weather History Graph

Search for Another Location

Airport or City:

Trip Planner

Search our weather history database for the weather conditions in past years. The results will help you decide how hot, cold, wet, or windy it might be!

Date:

Astronomy

May. 22, 2013 Rise Set
Actual Time 5:59 AM CDT 8:02 PM CDT
Civil Twilight 5:31 AM CDT 8:30 PM CDT
Nautical Twilight 4:57 AM CDT 9:04 PM CDT
Astronomical Twilight 4:20 AM CDT 9:41 PM CDT
Moon 5:31 PM CDT (5/22) 3:55 AM CDT (5/22)
Length of Visible Light 14h 59m
Length of Day
14h 03m
Waxing Gibbous, 91% of the Moon is Illuminated
May 22
Waxing Gibbous
May 24
Full
May 31
Last Quarter
Jun 8
New
Jun 16
First Quarter

Hourly Weather History & Observations

Time (CDT) Temp. Heat Index Dew Point Humidity Pressure Visibility Wind Dir Wind Speed Gust Speed Precip Events Conditions
12:17 AM 64.4 °F - 62.6 °F 94% 29.88 in 7.0 mi ESE 11.5 mph - 0.04 in Rain Rain
12:53 AM 64.0 °F - 62.1 °F 93% 29.83 in 10.0 mi ESE 15.0 mph 21.9 mph 0.06 in Rain Light Rain
1:53 AM 64.9 °F - 63.0 °F 93% 29.78 in 10.0 mi SE 17.3 mph 26.5 mph 0.00 in   Scattered Clouds
2:53 AM 64.9 °F - 63.0 °F 93% 29.83 in 10.0 mi SSE 5.8 mph - 0.00 in   Mostly Cloudy
3:31 AM 66.2 °F - 62.6 °F 88% 29.84 in 10.0 mi Calm Calm - N/A   Mostly Cloudy
3:53 AM 66.0 °F - 64.0 °F 93% 29.88 in 10.0 mi WNW 8.1 mph - N/A   Overcast
4:34 AM 64.4 °F - 64.4 °F 100% 29.87 in 10.0 mi WNW 4.6 mph - N/A   Overcast
4:53 AM 64.9 °F - 63.0 °F 93% 29.88 in 10.0 mi NW 4.6 mph - N/A   Overcast
5:53 AM 66.0 °F - 64.0 °F 93% 29.88 in 10.0 mi Calm Calm - N/A   Overcast
6:53 AM 66.0 °F - 64.0 °F 93% 29.90 in 10.0 mi NNE 3.5 mph - N/A   Overcast
7:53 AM 66.9 °F - 64.0 °F 90% 29.91 in 10.0 mi ESE 5.8 mph - N/A   Overcast
8:13 AM 66.2 °F - 64.4 °F 94% 29.89 in 10.0 mi ESE 4.6 mph - N/A   Mostly Cloudy
8:53 AM 69.1 °F - 66.0 °F 90% 29.91 in 10.0 mi SSE 6.9 mph - N/A   Partly Cloudy
9:41 AM 69.8 °F - 66.2 °F 88% 29.90 in 10.0 mi South 6.9 mph - N/A   Mostly Cloudy
9:53 AM 71.1 °F - 66.0 °F 84% 29.92 in 10.0 mi SSW 8.1 mph - N/A   Mostly Cloudy
10:04 AM 71.6 °F - 66.2 °F 83% 29.90 in 10.0 mi SSW 8.1 mph - N/A   Scattered Clouds
10:53 AM 73.9 °F - 66.9 °F 79% 29.92 in 10.0 mi SW 10.4 mph - N/A   Partly Cloudy
11:15 AM 73.4 °F - 66.2 °F 78% 29.91 in 10.0 mi WSW 8.1 mph - N/A   Mostly Cloudy
11:39 AM 75.2 °F - 66.2 °F 73% 29.90 in 10.0 mi West 9.2 mph - N/A   Scattered Clouds
11:53 AM 77.0 °F - 66.9 °F 71% 29.92 in 10.0 mi West 12.7 mph - N/A   Clear
12:53 PM 79.0 °F - 66.0 °F 64% 29.93 in 10.0 mi SW 6.9 mph - N/A   Partly Cloudy
1:53 PM 78.1 °F - 64.9 °F 64% 29.93 in 10.0 mi West 13.8 mph - N/A   Scattered Clouds
2:53 PM 79.0 °F - 66.0 °F 64% 29.91 in 10.0 mi WSW 6.9 mph - N/A   Scattered Clouds
3:53 PM 81.0 °F 82.5 °F 64.0 °F 56% 29.89 in 10.0 mi Variable 4.6 mph - N/A   Partly Cloudy
4:53 PM 81.0 °F 82.7 °F 64.9 °F 58% 29.89 in 10.0 mi Variable 4.6 mph - N/A   Clear
5:53 PM 81.0 °F 82.7 °F 64.9 °F 58% 29.89 in 10.0 mi West 8.1 mph - N/A   Clear
6:53 PM 78.1 °F - 64.9 °F 64% 29.90 in 10.0 mi SW 4.6 mph - N/A   Clear
7:53 PM 73.0 °F - 64.9 °F 76% 29.91 in 10.0 mi SW 4.6 mph - N/A   Clear
8:53 PM 71.1 °F - 66.9 °F 87% 29.92 in 10.0 mi SSW 3.5 mph - N/A   Clear
9:53 PM 69.1 °F - 64.9 °F 87% 29.94 in 10.0 mi SW 4.6 mph - N/A   Clear
10:53 PM 69.1 °F - 66.0 °F 90% 29.95 in 10.0 mi SW 3.5 mph - N/A   Clear
11:53 PM 66.0 °F - 64.0 °F 93% 29.95 in 10.0 mi SSW 3.5 mph - N/A   Clear